Regional Weather Roundup
Issued by NWS Sioux Falls, SD

Home | Current Version | Previous Version | Text Only | Print | Product List | Glossary Off
Versions: 1 2 3 4 5 6 7 8 9 10 11 12 13 14 15 16 17 18 19 20 21 22 23 24 25 26 27 28 29 30 31 32 33 34 35 36 37 38 39 40 41 42 43 44 45 46 47 48 49 50

000
ASUS43 KFSD 020810
RWRFSD

WEATHER ROUNDUP FOR SE SOUTH DAKOTA/SW MINNESOTA/NW IOWA
NATIONAL WEATHER SERVICE SIOUX FALLS SD
300 AM CDT THU JUL 02 2015

NOTE: "FAIR" INDICATES FEW OR NO CLOUDS BELOW 12,000 FEET WITH NO
SIGNIFICANT WEATHER AND OR OBSTRUCTIONS TO VISIBILITY.


SDZ038>040-050-052>070-020900-
SOUTHEAST SOUTH DAKOTA

CITY           SKY/WX    TMP DP  RH WIND       PRES   REMARKS
BROOKINGS      PTCLDY    59  52  77 SE9       30.00R
CHAMBERLAIN    NOT AVBL
HURON          MOCLDY    62  58  86 SE8       29.95S
MADISON        FAIR      57  57 100 SE7       29.99R
MITCHELL       PTCLDY    62  57  83 SE6       29.97R
SIOUX FALLS    CLEAR     59  55  87 E6        29.98R
WINNER         CLOUDY    69  63  81 SE3       29.97R
YANKTON        PTCLDY    63  55  77 E7        29.95R
$$

MNZ071-072-080-081-089-090-097-098-020900-
SOUTHWEST MINNESOTA

CITY           SKY/WX    TMP DP  RH WIND       PRES   REMARKS
FAIRMONT       CLEAR     54  45  71 SE3       29.99F
JACKSON        CLEAR     52  50  93 SE5       30.00F
LUVERNE        CLEAR     59  54  82 CALM      29.99S
MARSHALL       CLEAR     55  48  76 S6        29.98S
MONTEVIDEO     CLEAR     54  52  94 SE3       30.00F
PIPESTONE      CLOUDY    57  55  94 SE6       29.99S
REDWOOD FALLS  CLEAR     56  52  86 CALM      29.99F
TRACY          CLEAR     57  50  77 S6        29.99F
WINDOM         CLEAR     55  50  82 CALM      30.00F
WORTHINGTON    CLEAR     54  48  82 E5        30.00S
$$

IAZ001>003-012>014-020>022-031-032-NEZ013-014-SDZ071-020900-
NORTHWEST IOWA

CITY           SKY/WX    TMP DP  RH WIND       PRES   REMARKS
ESTHERVILLE    CLEAR     50  49  96 E6        29.99F
SIOUX CITY     CLEAR     61  53  75 E8        29.96R
SPENCER        CLEAR     53  49  86 E3        29.99F
$$

ABBREVIATIONS USED IN REMARKS
   TC - TEMPERATURE IN CELSIUS
  WCI - WIND CHILL INDEX
   HX - HEAT INDEX
  VSB - VISIBILITY




USA.gov is the U.S. government's official web portal to all federal, state and local government web resources and services.